Location: Unspecified
(49.8670°N, 0.0000°E)
Time: 21:50:06
(UTC+00:00)

Courier 1B Rocket - Pass Details

Date: 28 June 2019
Orbit: 920 x 1202 km, 28.2° (Epoch: 19 July)

Event Time Altitude Azimuth Distance (km) Brightness Sun altitude
Rises 03:18:51 0° 227° (SW) 3,970 - -5.0°
Exits shadow 03:21:08 - 216° (SW) 3,432 7.2 -4.7°
Reaches altitude 10° 03:24:05 10° 197° (SSW) 2,938 7.0 -4.4°
Maximum altitude 03:26:15 11° 179° (S) 2,795 7.0 -4.1°
Drops below altitude 10° 03:28:22 10° 161° (SSE) 2,873 7.2 -3.9°
Sets 03:33:18 0° 130° (SE) 3,749 8.2 -3.3°
